Maersk Essen — V7UQ8 — position and weather

sailwx.info

Track history (hours):
 
Tides and Currents Weather Stations Pressure Air Temp Water Temp Dewpoint Dewpoint Depression Visibility Wind Speed Wind Dir Waves Ship Positions

Maersk Essen

Last reported at 2014-Sep-20 13:27 UTC. Time now 2014-Sep-23 02:24 UTC.
Position N 23°33' E 117°54'.

Length 367 m; draft 13.6 m.

Type: Ship (hazmat cat A). MMSI: 538004007.

Date/timePositionNaut miles runAvg speedWind from/ knotsBaromVisibWave heightAir tempDewpointWater temp
2014-Sep-20 13:27N 23°33' E 117°54'1011.5
2014-Sep-20 12:33N 23°43' E 117°60'1111.2
2014-Sep-20 11:33N 23°53' E 118°05'1111.0
2014-Sep-20 10:33N 24°02' E 118°12'1110.9
2014-Sep-20 09:33N 24°11' E 118°18'1514.5
2014-Sep-20 08:33N 24°23' E 118°08'7 5.2
2014-Sep-20 07:17N 24°26' E 118°02'0 0.0
2014-Sep-20 06:29N 24°26' E 118°02'0 0.0
2014-Sep-20 05:29N 24°26' E 118°02'0 0.0
2014-Sep-20 04:23N 24°26' E 118°02'0 0.0
2014-Sep-20 03:17N 24°26' E 118°02'0 0.0
2014-Sep-20 01:23N 24°26' E 118°02'0 0.0
2014-Sep-20 00:23N 24°26' E 118°02'2 2.8
2014-Sep-19 23:33N 24°26' E 118°04'1010.1
2014-Sep-19 22:33N 24°19' E 118°12'1211.6
2014-Sep-19 21:33N 24°13' E 118°23'1 1.0
2014-Sep-19 20:29N 24°14' E 118°24'0 0.0
2014-Sep-19 19:11N 24°14' E 118°24'0 0.0
2014-Sep-19 18:05N 24°14' E 118°24'0 0.0
2014-Sep-19 15:23N 24°14' E 118°24'0 0.1
2014-Sep-19 13:23N 24°14' E 118°24'1910.6
2014-Sep-19 11:33N 24°19' E 118°45'2311.7
2014-Sep-19 09:33N 24°32' E 119°06'1212.5
2014-Sep-19 08:34N 24°39' E 119°17'1211.7
2014-Sep-19 07:33N 24°47' E 119°27'36311.0
2014-Sep-17 22:32N 29°55' E 123°03'1111.2
2014-Sep-17 21:31N 30°06' E 123°06'1010.3
2014-Sep-17 20:33N 30°16' E 123°03'1110.6
2014-Sep-17 19:32N 30°22' E 122°52'1010.2
2014-Sep-17 18:33N 30°28' E 122°43'1110.9
2014-Sep-17 17:32N 30°31' E 122°30'1212.1
2014-Sep-17 16:33N 30°33' E 122°17'1312.2
2014-Sep-17 15:30N 30°38' E 122°03'0 0.0
2014-Sep-16 22:33N 30°38' E 122°03'6 5.7
2014-Sep-16 21:32N 30°35' E 122°08'9 9.1
2014-Sep-16 20:33N 30°33' E 122°19'8 8.1
2014-Sep-16 19:32N 30°32' E 122°28'9 9.3
2014-Sep-16 18:33N 30°30' E 122°39'1313.4
2014-Sep-16 17:33N 30°30' E 122°54'13 1.7
2014-Sep-16 09:30N 30°41' E 123°02'1010.7
2014-Sep-16 08:32N 30°52' E 123°01'1010.4
2014-Sep-16 07:33N 31°02' E 123°01'32010.6
2014-Sep-15 01:28N 35°58' E 120°36'1011.4
2014-Sep-15 00:33N 36°00' E 120°24'7 0.4
2014-Sep-14 06:12N 36°02' E 120°15'6 9.2
2014-Sep-14 05:33N 36°01' E 120°23'10 9.6
2014-Sep-14 04:33N 35°59' E 120°34'97 8.8
2014-Sep-13 17:32N 36°34' E 122°26'1212.2
2014-Sep-13 16:32N 36°41' E 122°38'1111.5
2014-Sep-13 15:33N 36°48' E 122°49'1110.6
2014-Sep-13 14:33N 36°58' E 122°56'1110.5
2014-Sep-13 13:33N 37°08' E 122°57'1010.1
2014-Sep-13 12:32N 37°18' E 122°57'1510.6
2014-Sep-13 11:10N 37°33' E 122°57'711.5
2014-Sep-13 10:33N 37°39' E 122°53'1212.0
2014-Sep-13 09:33N 37°46' E 122°40'1212.5
2014-Sep-13 08:33N 37°52' E 122°27'1212.6
2014-Sep-13 07:33N 37°59' E 122°13'1212.2
2014-Sep-13 06:33N 38°05' E 121°60'1212.0
2014-Sep-13 05:33N 38°11' E 121°47'1211.6
2014-Sep-13 04:33N 38°16' E 121°33'1211.7
2014-Sep-13 03:33N 38°22' E 121°21'1212.1
2014-Sep-13 02:33N 38°28' E 121°07'1312.6
2014-Sep-13 01:33N 38°33' E 120°52'1313.0
2014-Sep-13 00:33N 38°36' E 120°36'1312.7
2014-Sep-12 23:33N 38°38' E 120°20'1512.3
2014-Sep-12 22:21N 38°39' E 120°01'9011.1
2014-Sep-12 14:16N 38°54' E 118°07'7 9.2
2014-Sep-12 13:32N 38°56' E 117°59'1010.1
2014-Sep-12 12:33N 38°60' E 117°47'0 0.2
2014-Sep-12 11:32N 38°60' E 117°47'0 0.0
2014-Sep-12 10:32N 38°60' E 117°47'0 0.0
2014-Sep-12 09:26N 38°60' E 117°47'0 0.0
2014-Sep-12 08:32N 38°60' E 117°47'0 0.0
2014-Sep-12 07:26N 38°60' E 117°47'0 0.0
2014-Sep-12 06:26N 38°60' E 117°47'0 0.0
2014-Sep-12 05:26N 38°60' E 117°47'0 0.0
2014-Sep-12 04:33N 38°60' E 117°47'0 0.0
2014-Sep-12 03:33N 38°60' E 117°47'0 0.0
2014-Sep-12 02:34N 38°60' E 117°47'0 0.0
2014-Sep-12 01:33N 38°60' E 117°47'0 0.0
2014-Sep-12 00:33N 38°60' E 117°47'0 0.0
2014-Sep-11 23:33N 38°60' E 117°47'0 0.0
2014-Sep-11 22:32N 38°60' E 117°47'0 0.0
2014-Sep-11 21:33N 38°60' E 117°47'0 0.0
2014-Sep-11 20:33N 38°60' E 117°47'0 0.0
2014-Sep-11 19:33N 38°60' E 117°47'0 0.0
2014-Sep-11 18:33N 38°60' E 117°47'0 0.0
2014-Sep-11 17:33N 38°60' E 117°47'0 0.0
2014-Sep-11 16:33N 38°60' E 117°47'0 0.0
2014-Sep-11 15:33N 38°60' E 117°47'2 1.8
2014-Sep-11 14:33N 38°58' E 117°48'1212.1
2014-Sep-11 13:32N 38°56' E 118°04'20 8.5
2014-Sep-11 11:07N 38°51' E 118°29'5 9.0
2014-Sep-11 10:33N 38°50' E 118°36'13 9.8
2014-Sep-11 09:14N 38°48' E 118°52'4311.7
2014-Sep-11 05:33N 38°41' E 119°47'1313.0
2014-Sep-11 04:33N 38°40' E 120°03'1312.9
2014-Sep-11 03:33N 38°40' E 120°20'1312.8
2014-Sep-11 02:33N 38°39' E 120°36'1312.0
2014-Sep-11 01:30N 38°37' E 120°52'1512.2
2014-Sep-11 00:16N 38°32' E 121°10'1013.6
2014-Sep-10 23:33N 38°31' E 121°22'1414.2
2014-Sep-10 22:34N 38°33' E 121°40'1413.8
2014-Sep-10 21:33N 38°44' E 121°51'1312.5
2014-Sep-10 20:33N 38°56' E 121°56'  
Track history (hours):
 
Tides and Currents Weather Stations Pressure Air Temp Water Temp Dewpoint Dewpoint Depression Visibility Wind Speed Wind Dir Waves Ship Positions

Maersk Essen

Last reported at 2014-Sep-20 13:27 UTC. Time now 2014-Sep-23 02:24 UTC.
Position N 23°33' E 117°54'.

Length 367 m; draft 13.6 m.

Type: Ship (hazmat cat A). MMSI: 538004007.

Date/timePositionNaut miles runAvg speedWind from/ knotsBaromVisibWave heightAir tempDewpointWater temp
2014-Sep-20 13:27N 23°33' E 117°54'1011.5
2014-Sep-20 12:33N 23°43' E 117°60'1111.2
2014-Sep-20 11:33N 23°53' E 118°05'1111.0
2014-Sep-20 10:33N 24°02' E 118°12'1110.9
2014-Sep-20 09:33N 24°11' E 118°18'1514.5
2014-Sep-20 08:33N 24°23' E 118°08'7 5.2
2014-Sep-20 07:17N 24°26' E 118°02'0 0.0
2014-Sep-20 06:29N 24°26' E 118°02'0 0.0
2014-Sep-20 05:29N 24°26' E 118°02'0 0.0
2014-Sep-20 04:23N 24°26' E 118°02'0 0.0
2014-Sep-20 03:17N 24°26' E 118°02'0 0.0
2014-Sep-20 01:23N 24°26' E 118°02'0 0.0
2014-Sep-20 00:23N 24°26' E 118°02'2 2.8
2014-Sep-19 23:33N 24°26' E 118°04'1010.1
2014-Sep-19 22:33N 24°19' E 118°12'1211.6
2014-Sep-19 21:33N 24°13' E 118°23'1 1.0
2014-Sep-19 20:29N 24°14' E 118°24'0 0.0
2014-Sep-19 19:11N 24°14' E 118°24'0 0.0
2014-Sep-19 18:05N 24°14' E 118°24'0 0.0
2014-Sep-19 15:23N 24°14' E 118°24'0 0.1
2014-Sep-19 13:23N 24°14' E 118°24'1910.6
2014-Sep-19 11:33N 24°19' E 118°45'2311.7
2014-Sep-19 09:33N 24°32' E 119°06'1212.5
2014-Sep-19 08:34N 24°39' E 119°17'1211.7
2014-Sep-19 07:33N 24°47' E 119°27'36311.0
2014-Sep-17 22:32N 29°55' E 123°03'1111.2
2014-Sep-17 21:31N 30°06' E 123°06'1010.3
2014-Sep-17 20:33N 30°16' E 123°03'1110.6
2014-Sep-17 19:32N 30°22' E 122°52'1010.2
2014-Sep-17 18:33N 30°28' E 122°43'1110.9
2014-Sep-17 17:32N 30°31' E 122°30'1212.1
2014-Sep-17 16:33N 30°33' E 122°17'1312.2
2014-Sep-17 15:30N 30°38' E 122°03'0 0.0
2014-Sep-16 22:33N 30°38' E 122°03'6 5.7
2014-Sep-16 21:32N 30°35' E 122°08'9 9.1
2014-Sep-16 20:33N 30°33' E 122°19'8 8.1
2014-Sep-16 19:32N 30°32' E 122°28'9 9.3
2014-Sep-16 18:33N 30°30' E 122°39'1313.4
2014-Sep-16 17:33N 30°30' E 122°54'13 1.7
2014-Sep-16 09:30N 30°41' E 123°02'1010.7
2014-Sep-16 08:32N 30°52' E 123°01'1010.4
2014-Sep-16 07:33N 31°02' E 123°01'32010.6
2014-Sep-15 01:28N 35°58' E 120°36'1011.4
2014-Sep-15 00:33N 36°00' E 120°24'7 0.4
2014-Sep-14 06:12N 36°02' E 120°15'6 9.2
2014-Sep-14 05:33N 36°01' E 120°23'10 9.6
2014-Sep-14 04:33N 35°59' E 120°34'97 8.8
2014-Sep-13 17:32N 36°34' E 122°26'1212.2
2014-Sep-13 16:32N 36°41' E 122°38'1111.5
2014-Sep-13 15:33N 36°48' E 122°49'1110.6
2014-Sep-13 14:33N 36°58' E 122°56'1110.5
2014-Sep-13 13:33N 37°08' E 122°57'1010.1
2014-Sep-13 12:32N 37°18' E 122°57'1510.6
2014-Sep-13 11:10N 37°33' E 122°57'711.5
2014-Sep-13 10:33N 37°39' E 122°53'1212.0
2014-Sep-13 09:33N 37°46' E 122°40'1212.5
2014-Sep-13 08:33N 37°52' E 122°27'1212.6
2014-Sep-13 07:33N 37°59' E 122°13'1212.2
2014-Sep-13 06:33N 38°05' E 121°60'1212.0
2014-Sep-13 05:33N 38°11' E 121°47'1211.6
2014-Sep-13 04:33N 38°16' E 121°33'1211.7
2014-Sep-13 03:33N 38°22' E 121°21'1212.1
2014-Sep-13 02:33N 38°28' E 121°07'1312.6
2014-Sep-13 01:33N 38°33' E 120°52'1313.0
2014-Sep-13 00:33N 38°36' E 120°36'1312.7
2014-Sep-12 23:33N 38°38' E 120°20'1512.3
2014-Sep-12 22:21N 38°39' E 120°01'9011.1
2014-Sep-12 14:16N 38°54' E 118°07'7 9.2
2014-Sep-12 13:32N 38°56' E 117°59'1010.1
2014-Sep-12 12:33N 38°60' E 117°47'0 0.2
2014-Sep-12 11:32N 38°60' E 117°47'0 0.0
2014-Sep-12 10:32N 38°60' E 117°47'0 0.0
2014-Sep-12 09:26N 38°60' E 117°47'0 0.0
2014-Sep-12 08:32N 38°60' E 117°47'0 0.0
2014-Sep-12 07:26N 38°60' E 117°47'0 0.0
2014-Sep-12 06:26N 38°60' E 117°47'0 0.0
2014-Sep-12 05:26N 38°60' E 117°47'0 0.0
2014-Sep-12 04:33N 38°60' E 117°47'0 0.0
2014-Sep-12 03:33N 38°60' E 117°47'0 0.0
2014-Sep-12 02:34N 38°60' E 117°47'0 0.0
2014-Sep-12 01:33N 38°60' E 117°47'0 0.0
2014-Sep-12 00:33N 38°60' E 117°47'0 0.0
2014-Sep-11 23:33N 38°60' E 117°47'0 0.0
2014-Sep-11 22:32N 38°60' E 117°47'0 0.0
2014-Sep-11 21:33N 38°60' E 117°47'0 0.0
2014-Sep-11 20:33N 38°60' E 117°47'0 0.0
2014-Sep-11 19:33N 38°60' E 117°47'0 0.0
2014-Sep-11 18:33N 38°60' E 117°47'0 0.0
2014-Sep-11 17:33N 38°60' E 117°47'0 0.0
2014-Sep-11 16:33N 38°60' E 117°47'0 0.0
2014-Sep-11 15:33N 38°60' E 117°47'2 1.8
2014-Sep-11 14:33N 38°58' E 117°48'1212.1
2014-Sep-11 13:32N 38°56' E 118°04'20 8.5
2014-Sep-11 11:07N 38°51' E 118°29'5 9.0
2014-Sep-11 10:33N 38°50' E 118°36'13 9.8
2014-Sep-11 09:14N 38°48' E 118°52'4311.7
2014-Sep-11 05:33N 38°41' E 119°47'1313.0
2014-Sep-11 04:33N 38°40' E 120°03'1312.9
2014-Sep-11 03:33N 38°40' E 120°20'1312.8
2014-Sep-11 02:33N 38°39' E 120°36'1312.0
2014-Sep-11 01:30N 38°37' E 120°52'1512.2
2014-Sep-11 00:16N 38°32' E 121°10'1013.6
2014-Sep-10 23:33N 38°31' E 121°22'1414.2
2014-Sep-10 22:34N 38°33' E 121°40'1413.8
2014-Sep-10 21:33N 38°44' E 121°51'1312.5
2014-Sep-10 20:33N 38°56' E 121°56'  

Dump ship's entire track history